This is the latest recevied weather packets stored in our database for station/object W4OA. If no packets are shown the sender has not sent any weather packets the latest 10 day(s).
| Time | Temp. | Humidity | Pressure | Rain* | Wind** | Luminosity | Snow |
|---|---|---|---|---|---|---|---|
| 1777765798 | 18.33° C | 38% | 1008 hPa | 0 mm | - | 0 W/m² | - |
| 1777765498 | 18.33° C | 38% | 1008 hPa | 0 mm | - | 0 W/m² | - |
| 1777765198 | 18.33° C | 39% | 1008 hPa | 0 mm | - | 0 W/m² | - |
| 1777764898 | 18.89° C | 37% | 1008 hPa | 0 mm | - | 0 W/m² | - |
| 1777764598 | 18.89° C | 37% | 1007 hPa | 0 mm | - | 0 W/m² | - |
| 1777764299 | 18.89° C | 37% | 1008 hPa | 0 mm | - | 0 W/m² | - |
| 1777763998 | 19.44° C | 36% | 1007 hPa | 0 mm | - | 0 W/m² | - |
| 1777763698 | 19.44° C | 36% | 1008 hPa | 0 mm | - | 0 W/m² | - |
| 1777763398 | 19.44° C | 36% | 1007 hPa | 0 mm | - | 0 W/m² | - |
| 1777763098 | 19.44° C | 35% | 1007 hPa | 0 mm | - | 0 W/m² | - |
| 1777762798 | 19.44° C | 35% | 1007 hPa | 0 mm | - | 0 W/m² | - |
| 1777762499 | 20° C | 35% | 1007 hPa | 0 mm | - | 0 W/m² | - |
| 1777762198 | 20° C | 37% | 1007 hPa | 0 mm | - | 0 W/m² | - |
| 1777761898 | 20° C | 36% | 1007 hPa | 0 mm | - | 0 W/m² | - |
| 1777761598 | 20° C | 34% | 1007 hPa | 0 mm | - | 0 W/m² | - |
| 1777761298 | 19.44° C | 37% | 1007 hPa | 0 mm | - | 0 W/m² | - |
| 1777760998 | 19.44° C | 36% | 1007 hPa | 0 mm | - | 0 W/m² | - |
| 1777760698 | 20° C | 37% | 1007 hPa | 0 mm | - | 0 W/m² | - |
| 1777760398 | 20° C | 37% | 1007 hPa | 0 mm | - | 0 W/m² | - |
| 1777760098 | 20.56° C | 35% | 1007 hPa | 0 mm | - | 0 W/m² | - |
| 1777759799 | 20.56° C | 37% | 1007 hPa | 0 mm | - | 0 W/m² | - |
| 1777759499 | 20.56° C | 35% | 1007 hPa | 0 mm | - | 0 W/m² | - |
| 1777759199 | 21.11° C | 36% | 1007 hPa | 0 mm | - | 0 W/m² | - |
| 1777758898 | 21.11° C | 37% | 1007 hPa | 0 mm | - | 0 W/m² | - |
| 1777758598 | 20.56° C | 36% | 1007 hPa | 0 mm | - | 0 W/m² | - |
* Rain latest hour (hover to see other rain measurements)
** Current wind speed in m/s (hover to see current wind gust speed)